Hourly Data Report for October 30, 2005

TORONTO CITY
ONTARIO

43°40'00.000" N
79°24'00.000" W
112.50 m
6158355
71508
XTO

Download Data

Hourly Data (October 2005)
Hourly Data Report for October 30, 2005
TIME
LST
Temp Definition
°C
Dew Point Definition
°C
Rel Hum Definition
%
Precip. Amount Definition
mm

Wind Dir Definition
10's deg

Wind Spd Definition
km/h
Visibility Definition
km
Stn Press Definition
kPa
Hmdx Definition


Wind Chill Definition


Weather Definition


00:00 7.7 4.3 79   LegendMM LegendMM   100.93     LegendNANA
01:00 7.8 4.8 81   LegendMM LegendMM   100.90     LegendNANA
02:00 7.5 4.1 79   LegendMM LegendMM   100.91     LegendNANA
03:00 6.2 3.7 84   LegendMM LegendMM   100.89     LegendNANA
04:00 6.9 4.1 82   LegendMM LegendMM   100.90     LegendNANA
05:00 6.6 4.2 85   LegendMM LegendMM   100.92     LegendNANA
06:00 7.5 4.0 78   LegendMM LegendMM   100.93     LegendNANA
07:00 6.0 3.7 85   LegendMM LegendMM   101.00     LegendNANA
08:00 8.3 4.7 78   LegendMM LegendMM   101.04     LegendNANA
09:00 9.2 5.1 75   LegendMM LegendMM   101.06     LegendNANA
10:00 10.0 6.1 77   LegendMM LegendMM   101.03     LegendNANA
11:00 11.1 6.3 72   LegendMM LegendMM   100.99     LegendNANA
12:00 13.3 7.1 66   LegendMM LegendMM   100.91     LegendNANA
13:00 15.2 7.7 61   LegendMM LegendMM   100.81     LegendNANA
14:00 15.6 4.9 49   LegendMM LegendMM   100.78     LegendNANA
15:00 14.9 5.5 53   LegendMM LegendMM   100.75     LegendNANA
16:00 14.5 5.2 54   LegendMM LegendMM   100.72     LegendNANA
17:00 13.8 4.2 52   LegendMM LegendMM   100.70     LegendNANA
18:00 13.1 5.4 60   LegendMM LegendMM   100.74     LegendNANA
19:00 12.0 5.4 64   LegendMM LegendMM   100.74     LegendNANA
20:00 11.4 4.6 63   LegendMM LegendMM   100.71     LegendNANA
21:00 10.7 4.5 65   LegendMM LegendMM   100.70     LegendNANA
22:00 9.8 6.1 78   LegendMM LegendMM   100.69     LegendNANA
23:00 10.6 5.6 71   LegendMM LegendMM   100.65     LegendNANA

Notes on Data Quality.

Legend

  • E = Estimated
  • M = Missing
  • NA = Not Available*
  • [empty] = Indicates an unobserved value
Date modified: